Location: Betz
(49.1556°N, 2.9558°E)
Time: 09:46:36
(UTC+00:00)

Meteor 1-4 Rocket - Pass Details

Date: 18 September 2019
Orbit: 449 x 504 km, 81.2° (Epoch: 20 October)

Event Time Altitude Azimuth Distance (km) Brightness Sun altitude
Rises 19:48:42 0° 346° (NNW) 2,532 6.8 -18.6°
Reaches altitude 10° 19:50:49 10° 343° (NNW) 1,640 5.8 -18.9°
Maximum altitude 19:54:23 67° 261° (W) 509 2.7 -19.5°
Enters shadow 19:55:36 37° 191° (S) 739 3.3 -19.6°
